Location: Bemmer
(51.5498°N, 5.6249°E)
Time: 17:50:50
(UTC+00:00)

IRS-1C Rocket - Pass Details

Date: 03 March 2021
Orbit: 800 x 806 km, 99.0° (Epoch: 12 April)

Event Time Altitude Azimuth Distance (km) Brightness Sun altitude
Rises 18:05:50 0° 168° (SSE) 3,305 7.2 -7.7°
Reaches altitude 10° 18:08:09 10° 170° (S) 2,379 6.5 -8.0°
Maximum altitude 18:13:25 74° 255° (WSW) 841 4.4 -8.8°
Drops below altitude 10° 18:18:43 10° 341° (NNW) 2,399 6.8 -9.7°
Sets 18:21:05 0° 344° (NNW) 3,335 7.6 -10.0°
